| time (UTC) | temp F | wind direction | speed MPH | gust MPH | rain 1hr in | rain 24hr in | rain mn in | humidity % | barometer mb |
| 20260906205139 | 63 | 73 | 0.0 | 0.0 | 0.00 | 0.00 | 0.00 | 88 | 1016.0 |
| 20260906204124 | 64 | 73 | 0.0 | 0.0 | 0.00 | 0.00 | 0.00 | 88 | 1016.2 |
| 20260906203116 | 64 | 73 | 0.0 | 0.0 | 0.00 | 0.00 | 0.00 | 88 | 1016.2 |
| 20260906202127 | 64 | 73 | 0.0 | 0.0 | 0.00 | 0.00 | 0.00 | 88 | 1016.2 |
| 20260906201113 | 64 | 73 | 0.0 | 0.0 | 0.00 | 0.00 | 0.00 | 88 | 1016.0 |
| 20260906200126 | 64 | 73 | 0.0 | 0.0 | 0.00 | 0.00 | 0.00 | 88 | 1016.2 |
| 20260906195138 | 64 | 73 | 0.0 | 0.0 | 0.00 | 0.00 | 0.00 | 89 | 1016.3 |
| 20260906194121 | 64 | 73 | 0.0 | 0.0 | 0.00 | 0.00 | 0.00 | 89 | 1016.2 |
| 20260906193135 | 64 | 87 | 0.0 | 0.0 | 0.00 | 0.00 | 0.00 | 89 | 1016.1 |
| 20260906192146 | 65 | 87 | 0.0 | 0.0 | 0.00 | 0.00 | 0.00 | 89 | 1016.1 |
| 20260906191117 | 65 | 87 | 0.0 | 0.0 | 0.00 | 0.00 | 0.00 | 89 | 1016.0 |
| 20260906190122 | 65 | 87 | 0.0 | 0.0 | 0.00 | 0.00 | 0.00 | 88 | 1016.0 |
| 20260906185115 | 66 | 79 | 0.0 | 1.0 | 0.00 | 0.00 | 0.00 | 88 | 1015.9 |
| 20260906184128 | 66 | 74 | 0.0 | 1.0 | 0.00 | 0.00 | 0.00 | 87 | 1015.7 |
| 20260906183133 | 66 | 72 | 0.0 | 1.0 | 0.00 | 0.00 | 0.00 | 86 | 1015.6 |
| 20260906182125 | 67 | 72 | 0.0 | 2.0 | 0.00 | 0.00 | 0.00 | 85 | 1015.5 |
| 20260906181119 | 67 | 81 | 0.0 | 2.0 | 0.00 | 0.00 | 0.00 | 85 | 1015.4 |
| 20260906180123 | 68 | 63 | 0.0 | 4.0 | 0.00 | 0.00 | 0.00 | 84 | 1015.4 |
| 20260906175114 | 68 | 71 | 0.0 | 3.0 | 0.00 | 0.00 | 0.00 | 82 | 1015.5 |
| 20260906174127 | 68 | 86 | 0.0 | 4.0 | 0.00 | 0.00 | 0.00 | 80 | 1015.5 |
| 20260906173113 | 69 | 78 | 0.0 | 2.0 | 0.00 | 0.00 | 0.00 | 77 | 1015.5 |
| 20260906172131 | 70 | 86 | 0.0 | 3.0 | 0.00 | 0.00 | 0.00 | 75 | 1015.5 |
| 20260906171136 | 71 | 74 | 0.0 | 3.0 | 0.00 | 0.00 | 0.00 | 73 | 1015.4 |
| 20260906170127 | 72 | 84 | 0.0 | 3.0 | 0.00 | 0.00 | 0.00 | 71 | 1015.5 |
| 20260906165139 | 73 | 74 | 0.0 | 4.0 | 0.00 | 0.00 | 0.00 | 71 | 1015.6 |
| 20260906164131 | 73 | 75 | 0.0 | 5.0 | 0.00 | 0.00 | 0.00 | 70 | 1015.6 |
| 20260906163117 | 74 | 81 | 0.0 | 2.0 | 0.00 | 0.00 | 0.00 | 69 | 1015.5 |
| 20260906162129 | 74 | 68 | 0.0 | 3.0 | 0.00 | 0.00 | 0.00 | 69 | 1015.8 |
| 20260906161113 | 74 | 219 | 0.0 | 3.0 | 0.00 | 0.00 | 0.00 | 67 | 1016.0 |
| 20260906160131 | 74 | 68 | 1.0 | 3.0 | 0.00 | 0.00 | 0.00 | 66 | 1016.1 |
| 20260906155115 | 74 | 72 | 0.0 | 2.0 | 0.00 | 0.00 | 0.00 | 67 | 1016.1 |
| 20260906154140 | 74 | 82 | 0.0 | 1.0 | 0.00 | 0.00 | 0.00 | 67 | 1016.2 |
| 20260906153131 | 74 | 58 | 0.0 | 3.0 | 0.00 | 0.00 | 0.00 | 67 | 1016.3 |
| 20260906152123 | 74 | 75 | 0.0 | 2.0 | 0.00 | 0.00 | 0.00 | 68 | 1016.3 |
| 20260906151130 | 74 | 60 | 0.0 | 4.0 | 0.00 | 0.00 | 0.00 | 68 | 1016.6 |
| 20260906150122 | 75 | 63 | 1.0 | 6.0 | 0.00 | 0.00 | 0.00 | 67 | 1016.7 |
| 20260906145154 | 75 | 59 | 1.0 | 5.0 | 0.00 | 0.00 | 0.00 | 67 | 1016.9 |
| 20260906144120 | 73 | 81 | 1.0 | 4.0 | 0.00 | 0.00 | 0.00 | 70 | 1017.0 |
| 20260906143112 | 73 | 86 | 1.0 | 3.0 | 0.00 | 0.00 | 0.00 | 69 | 1017.2 |
| 20260906142119 | 73 | 55 | 0.0 | 5.0 | 0.00 | 0.00 | 0.00 | 68 | 1017.1 |
| 20260906141132 | 73 | 144 | 0.0 | 4.0 | 0.00 | 0.00 | 0.00 | 68 | 1017.3 |
| 20260906140118 | 72 | 115 | 1.0 | 4.0 | 0.00 | 0.00 | 0.00 | 68 | 1017.5 |
| 20260906135130 | 73 | 82 | 1.0 | 4.0 | 0.00 | 0.00 | 0.00 | 66 | 1017.4 |
| 20260906134124 | 73 | 89 | 1.0 | 4.0 | 0.00 | 0.00 | 0.00 | 64 | 1017.5 |
| 20260906133158 | 74 | 69 | 1.0 | 6.0 | 0.00 | 0.00 | 0.00 | 64 | 1017.4 |
| 20260906132122 | 74 | 84 | 1.0 | 5.0 | 0.00 | 0.00 | 0.00 | 64 | 1017.6 |
| 20260906131119 | 74 | 354 | 1.0 | 4.0 | 0.00 | 0.00 | 0.00 | 64 | 1017.5 |
| 20260906130125 | 73 | 86 | 1.0 | 3.0 | 0.00 | 0.00 | 0.00 | 66 | 1017.6 |
| 20260906125115 | 72 | 82 | 0.0 | 4.0 | 0.00 | 0.00 | 0.00 | 69 | 1017.8 |
| 20260906124127 | 72 | 72 | 0.0 | 2.0 | 0.00 | 0.00 | 0.00 | 69 | 1018.0 |
| 20260906123142 | 73 | 75 | 0.0 | 2.0 | 0.00 | 0.00 | 0.00 | 69 | 1018.1 |
| 20260906122147 | 74 | 85 | 0.0 | 3.0 | 0.00 | 0.00 | 0.00 | 67 | 1018.3 |
| 20260906121116 | 75 | 86 | 0.0 | 4.0 | 0.00 | 0.00 | 0.00 | 64 | 1018.4 |
| 20260906120121 | 75 | 70 | 0.0 | 2.0 | 0.00 | 0.00 | 0.00 | 65 | 1018.4 |
| 20260906115117 | 75 | 79 | 0.0 | 3.0 | 0.00 | 0.00 | 0.00 | 65 | 1018.5 |
| 20260906114121 | 75 | 86 | 1.0 | 5.0 | 0.00 | 0.00 | 0.00 | 65 | 1018.4 |
| 20260906113113 | 75 | 72 | 1.0 | 3.0 | 0.00 | 0.00 | 0.00 | 66 | 1018.5 |
| 20260906112120 | 75 | 58 | 0.0 | 4.0 | 0.00 | 0.00 | 0.00 | 65 | 1018.6 |
| 20260906111130 | 74 | 70 | 1.0 | 3.0 | 0.00 | 0.00 | 0.00 | 65 | 1018.8 |
| 20260906110121 | 75 | 90 | 1.0 | 2.0 | 0.00 | 0.00 | 0.00 | 64 | 1018.9 |
| 20260906105131 | 74 | 88 | 0.0 | 1.0 | 0.00 | 0.00 | 0.00 | 64 | 1019.2 |
| 20260906104116 | 74 | 85 | 1.0 | 3.0 | 0.00 | 0.00 | 0.00 | 62 | 1019.2 |
| 20260906103129 | 74 | 84 | 1.0 | 3.0 | 0.00 | 0.00 | 0.00 | 64 | 1019.2 |
| 20260906102114 | 74 | 70 | 0.0 | 4.0 | 0.00 | 0.00 | 0.00 | 66 | 1019.3 |
| 20260906101154 | 74 | 81 | 0.0 | 1.0 | 0.00 | 0.00 | 0.00 | 67 | 1019.5 |
| 20260906100118 | 73 | 75 | 0.0 | 4.0 | 0.00 | 0.00 | 0.00 | 70 | 1019.5 |
| 20260906095131 | 72 | 97 | 0.0 | 2.0 | 0.00 | 0.00 | 0.00 | 70 | 1019.7 |
| 20260906094117 | 72 | 81 | 0.0 | 2.0 | 0.00 | 0.00 | 0.00 | 73 | 1019.9 |
| 20260906093131 | 71 | 87 | 0.0 | 3.0 | 0.00 | 0.00 | 0.00 | 76 | 1020.1 |
| 20260906092117 | 71 | 68 | 0.0 | 3.0 | 0.00 | 0.00 | 0.00 | 75 | 1020.2 |
| 20260906091110 | 71 | 133 | 0.0 | 4.0 | 0.00 | 0.00 | 0.00 | 76 | 1020.3 |
| 20260906090144 | 70 | 56 | 0.0 | 4.0 | 0.00 | 0.00 | 0.00 | 78 | 1020.3 |
| 20260906085110 | 69 | 257 | 1.0 | 6.0 | 0.00 | 0.00 | 0.00 | 78 | 1020.1 |
| 20260906084123 | 69 | 251 | 0.0 | 3.0 | 0.00 | 0.00 | 0.00 | 79 | 1020.2 |
| 20260906083110 | 69 | 241 | 1.0 | 3.0 | 0.00 | 0.00 | 0.00 | 79 | 1020.1 |
| 20260906082123 | 68 | 269 | 0.0 | 3.0 | 0.00 | 0.00 | 0.00 | 82 | 1020.1 |
| 20260906081136 | 67 | 6 | 0.0 | 5.0 | 0.00 | 0.00 | 0.00 | 82 | 1020.1 |
| 20260906080145 | 66 | 232 | 0.0 | 5.0 | 0.00 | 0.00 | 0.00 | 85 | 1020.1 |
| 20260906075110 | 65 | 236 | 1.0 | 3.0 | 0.00 | 0.00 | 0.00 | 86 | 1020.2 |
| 20260906074123 | 65 | 227 | 0.0 | 1.0 | 0.00 | 0.00 | 0.00 | 87 | 1020.3 |
| 20260906073136 | 64 | 227 | 0.0 | 3.0 | 0.00 | 0.00 | 0.00 | 88 | 1020.2 |
| 20260906072122 | 63 | 227 | 0.0 | 1.0 | 0.00 | 0.00 | 0.00 | 88 | 1020.3 |
| 20260906071116 | 62 | 227 | 0.0 | 1.0 | 0.00 | 0.00 | 0.00 | 89 | 1020.2 |
| 20260906070119 | 61 | 227 | 0.0 | 2.0 | 0.00 | 0.00 | 0.00 | 89 | 1020.2 |
| 20260906065112 | 61 | 227 | 0.0 | 1.0 | 0.00 | 0.00 | 0.00 | 90 | 1020.1 |
| 20260906064124 | 60 | 227 | 0.0 | 2.0 | 0.00 | 0.00 | 0.00 | 90 | 1020.3 |
| 20260906063138 | 59 | 227 | 0.0 | 1.0 | 0.00 | 0.00 | 0.00 | 91 | 1020.2 |
| 20260906062143 | 59 | 227 | 0.0 | 1.0 | 0.00 | 0.00 | 0.00 | 91 | 1020.3 |
| 20260906061114 | 58 | 227 | 0.0 | 2.0 | 0.00 | 0.00 | 0.00 | 92 | 1020.2 |
| 20260906060120 | 58 | 227 | 0.0 | 1.0 | 0.00 | 0.00 | 0.00 | 92 | 1020.4 |
| 20260906055113 | 57 | 227 | 0.0 | 1.0 | 0.00 | 0.00 | 0.00 | 92 | 1020.4 |
| 20260906054142 | 57 | 227 | 0.0 | 1.0 | 0.00 | 0.00 | 0.00 | 92 | 1020.5 |
| 20260906053133 | 57 | 227 | 0.0 | 0.0 | 0.00 | 0.00 | 0.00 | 92 | 1020.5 |
| 20260906052116 | 57 | 227 | 0.0 | 0.0 | 0.00 | 0.00 | 0.00 | 92 | 1020.5 |
| 20260906051150 | 57 | 227 | 0.0 | 0.0 | 0.00 | 0.00 | 0.00 | 91 | 1020.7 |
| 20260906050122 | 57 | 227 | 0.0 | 0.0 | 0.00 | 0.00 | 0.00 | 91 | 1020.8 |
| 20260906045133 | 57 | 227 | 0.0 | 0.0 | 0.00 | 0.00 | 0.00 | 90 | 1020.9 |
| 20260906044119 | 58 | 227 | 0.0 | 0.0 | 0.00 | 0.00 | 0.00 | 90 | 1021.1 |
| 20260906043133 | 58 | 227 | 0.0 | 0.0 | 0.00 | 0.00 | 0.00 | 90 | 1021.0 |
| 20260906042118 | 58 | 227 | 0.0 | 0.0 | 0.00 | 0.00 | 0.00 | 90 | 1021.3 |
| 20260906041127 | 59 | 227 | 0.0 | 0.0 | 0.00 | 0.00 | 0.00 | 90 | 1021.5 |
| 20260906040119 | 59 | 227 | 0.0 | 0.0 | 0.00 | 0.00 | 0.00 | 90 | 1021.6 |
| 20260906035125 | 59 | 227 | 0.0 | 0.0 | 0.00 | 0.00 | 0.00 | 90 | 1021.6 |
| 20260906034117 | 59 | 227 | 0.0 | 0.0 | 0.00 | 0.00 | 0.00 | 90 | 1021.9 |
| 20260906033149 | 59 | 227 | 0.0 | 0.0 | 0.00 | 0.00 | 0.00 | 90 | 1021.9 |
| 20260906032114 | 59 | 227 | 0.0 | 0.0 | 0.00 | 0.00 | 0.00 | 90 | 1022.0 |
| 20260906031126 | 59 | 227 | 0.0 | 0.0 | 0.00 | 0.00 | 0.00 | 90 | 1022.2 |
| 20260906030120 | 59 | 227 | 0.0 | 0.0 | 0.00 | 0.00 | 0.00 | 90 | 1022.3 |
| 20260906025154 | 58 | 227 | 0.0 | 0.0 | 0.00 | 0.00 | 0.00 | 89 | 1022.5 |
| 20260906024145 | 58 | 227 | 0.0 | 0.0 | 0.00 | 0.00 | 0.00 | 89 | 1022.5 |
| 20260906023129 | 58 | 227 | 0.0 | 0.0 | 0.00 | 0.00 | 0.00 | 89 | 1022.6 |
| 20260906022123 | 58 | 227 | 0.0 | 0.0 | 0.00 | 0.00 | 0.00 | 89 | 1022.7 |
| 20260906021134 | 59 | 227 | 0.0 | 0.0 | 0.00 | 0.00 | 0.00 | 89 | 1022.7 |
| 20260906020125 | 58 | 227 | 0.0 | 0.0 | 0.00 | 0.00 | 0.00 | 89 | 1022.9 |
| 20260906015113 | 58 | 227 | 0.0 | 0.0 | 0.00 | 0.00 | 0.00 | 88 | 1023.0 |
| 20260906014146 | 59 | 227 | 0.0 | 0.0 | 0.00 | 0.00 | 0.00 | 88 | 1022.9 |
| 20260906013111 | 59 | 227 | 0.0 | 0.0 | 0.00 | 0.00 | 0.00 | 88 | 1023.1 |
| 20260906012120 | 59 | 227 | 0.0 | 0.0 | 0.00 | 0.00 | 0.00 | 88 | 1023.2 |
| 20260906011154 | 59 | 227 | 0.0 | 0.0 | 0.00 | 0.00 | 0.00 | 88 | 1023.2 |
| 20260906010119 | 60 | 227 | 0.0 | 0.0 | 0.00 | 0.00 | 0.00 | 88 | 1023.2 |
| 20260906005132 | 60 | 227 | 0.0 | 0.0 | 0.00 | 0.00 | 0.00 | 88 | 1023.3 |
| 20260906004119 | 59 | 227 | 0.0 | 0.0 | 0.00 | 0.00 | 0.00 | 87 | 1023.4 |
| 20260906003116 | 59 | 227 | 0.0 | 0.0 | 0.00 | 0.00 | 0.00 | 87 | 1023.5 |
| 20260906002122 | 59 | 227 | 0.0 | 0.0 | 0.00 | 0.00 | 0.00 | 87 | 1023.7 |
| 20260906001116 | 59 | 227 | 0.0 | 0.0 | 0.00 | 0.00 | 0.00 | 86 | 1023.7 |
| 20260906000123 | 60 | 227 | 0.0 | 0.0 | 0.00 | 0.00 | 0.00 | 86 | 1023.8 |
| 20260905235116 | 60 | 227 | 0.0 | 0.0 | 0.00 | 0.00 | 0.00 | 86 | 1023.7 |
| 20260905234129 | 60 | 227 | 0.0 | 0.0 | 0.00 | 0.00 | 0.00 | 85 | 1023.7 |
| 20260905233131 | 60 | 227 | 0.0 | 0.0 | 0.00 | 0.00 | 0.00 | 85 | 1023.8 |
| 20260905232125 | 60 | 227 | 0.0 | 0.0 | 0.00 | 0.00 | 0.00 | 84 | 1023.8 |
| 20260905231111 | 60 | 227 | 0.0 | 0.0 | 0.00 | 0.00 | 0.00 | 84 | 1024.0 |
| 20260905230124 | 60 | 227 | 0.0 | 0.0 | 0.00 | 0.00 | 0.00 | 84 | 1024.0 |
| 20260905225137 | 60 | 227 | 0.0 | 0.0 | 0.00 | 0.00 | 0.00 | 83 | 1024.3 |
| 20260905224123 | 60 | 227 | 0.0 | 0.0 | 0.00 | 0.00 | 0.00 | 83 | 1024.2 |
| 20260905223116 | 60 | 227 | 0.0 | 0.0 | 0.00 | 0.00 | 0.00 | 83 | 1024.1 |
| 20260905222122 | 60 | 227 | 0.0 | 0.0 | 0.00 | 0.00 | 0.00 | 83 | 1024.1 |
| 20260905221135 | 61 | 227 | 0.0 | 0.0 | 0.00 | 0.00 | 0.00 | 82 | 1024.1 |
| 20260905220146 | 61 | 227 | 0.0 | 0.0 | 0.00 | 0.00 | 0.00 | 82 | 1024.0 |
| 20260905215117 | 61 | 227 | 0.0 | 0.0 | 0.00 | 0.00 | 0.00 | 82 | 1024.0 |
| 20260905214123 | 61 | 227 | 0.0 | 0.0 | 0.00 | 0.00 | 0.00 | 81 | 1024.1 |
| 20260905213116 | 61 | 227 | 0.0 | 1.0 | 0.00 | 0.00 | 0.00 | 81 | 1024.1 |
| 20260905212130 | 61 | 227 | 0.0 | 0.0 | 0.00 | 0.00 | 0.00 | 80 | 1024.1 |
| 20260905211114 | 62 | 227 | 0.0 | 1.0 | 0.00 | 0.00 | 0.00 | 80 | 1024.1 |
| 20260905210128 | 62 | 227 | 0.0 | 1.0 | 0.00 | 0.00 | 0.00 | 79 | 1024.1 |